STARLINK-2324 (47869 NORAD) Tracking and Keplerian Element Data

This shows tracking and keplerian element data for the satellite.

Feedback or suggestion? Click here.




ElementValue
Catalog47869
NameSTARLINK-2324
Epoch Orbit1632
Epoch Day173.91668981
Epoch Year2021
RAAN78.5772
Inclination53.0498
Eccentricity0.000253
Argument of Perigee18.2885
Mean Anonmoly196.1476
Mean Motion15.73213079
Decay Rate-2.932E-05
L11 47869U 21021K 21173.91668981 -.00002932 00000-0 -16444-4 0 9993
L22 47869 53.0498 78.5772 0002530 18.2885 196.1476 15.73213079 16327

Live tracking and technical data element details for STARLINK-2324 (NORAD 47869). STARLINK-2324 can be tracked NOW for your location showing map with azimuth and elevation plus other details from your city location.

Track the satellite on the map from your city or location and see movement details for azimuth, elevation, latitude, longitude, range, height, and movement on the map or in text.







IsCatalogInMostPopularTable: catalog: 47869, numindb: 45
Update: records affected: 1



GetName: 47869 STARLINK-2324

Hit Count: updated at: Thu, 24 Jun 2021 03:55:53 GMT